{"data":{"norad_id":58992,"intl_designator":"2024-034A","name":"ADRAS-J","alt_names":[],"object_type":"PAYLOAD","status":"ACTIVE","operator":null,"country":"JPN","launch_date":"2024-02-18","launch_site_code":"RLLB","launch_vehicle":null,"mission":null,"orbit_class":"UNKNOWN","rcs_meters":null,"size_class":null,"mass_kg":null,"dimensions":null,"purposes":[],"wikipedia_slug":null,"has_3d_model":false,"image_url":null,"decayed_at":null,"tle_current":{"epoch":"2026-05-25T03:38:20.685120Z","epoch_age_seconds":57845,"freshness":"FRESH","line1":"1 58992U 24034A   26145.15162830  .00068782  00000+0  93806-3 0  9999","line2":"2 58992  98.2238 173.2013 0176660 193.4418 166.2089 15.41071118124031","mean_motion":15.41071118,"eccentricity":0.017666,"inclination_deg":98.2238,"raan_deg":173.2013,"arg_perigee_deg":193.4418,"mean_anomaly_deg":166.2089,"bstar":0.00093806,"rev_number":12403,"period_min":93.44150202937,"perigee_km":322.44556656522,"apogee_km":563.44810057288,"semimajor_km":6821.0838335691,"source":"CELESTRAK","updated_at":"2026-05-25T13:38:01.119406Z"}}}